Skip Page Navigation
NASA JPL Caltech
NASA Logo - Jet Propulsion Laboratory + View the NASA Portal
+ Center for Near-Earth Object Studies
JPL Home Earth Solar System Stars & Galaxies Technology
JPL Solar System Dynamics
BODIES ORBITS EPHEMERIDES TOOLS PHYSICAL DATA DISCOVERY FAQ SITE MAP
JPL Small-Body Database Browser
Search: [ help ]  
72526 (2001 DV92)
Classification: Main-belt Asteroid          SPK-ID: 2072526
Ephemeris | Orbit Diagram | Orbital Elements | Mission Design | Physical Parameters | Discovery Circumstances ]

[ show orbit diagram ]
Orbital Elements at Epoch 2459200.5 (2020-Dec-17.0) TDB
Reference: JPL 17 (heliocentric ecliptic J2000)
 Element Value Uncertainty (1-sigma)   Units 
e .2119067480047404 2.7795e-08  
a 2.31638956618623 9.1674e-09 au
q 1.825530986103595 6.4384e-08 au
i 3.480794505114444 3.9715e-06 deg
node 23.05265618569206 6.4429e-05 deg
peri 56.61099153106894 6.5594e-05 deg
M 278.0209184869662 1.3355e-05 deg
tp 2459493.735384001764
(2021-Oct-06.23538400)
4.881e-05 TDB
period 1287.703354225206
3.53
7.6444e-06
2.093e-08
d
yr
n .2795674941893798 1.6596e-09 deg/d
Q 2.807248146268865 1.111e-08 au
  Orbit Determination Parameters
   # obs. used (total)      636  
   data-arc span      9636 days (26.38 yr)  
   first obs. used      1994-03-05  
   last obs. used      2020-07-22  
   planetary ephem.      DE441  
   SB-pert. ephem.      SB441-N16  
   condition code      0  
   norm. resid. RMS      .53832  
   source      ORB  
   producer      Otto Matic  
   solution date      2021-Apr-13 13:02:34  

Additional Information
 Earth MOID = .843434 au 
 Jupiter MOID = 2.45274 au 
 T_jup = 3.548 
[ show covariance matrix ]

Ephemeris | Orbit Diagram | Orbital Elements | Mission Design | Physical Parameters | Discovery Circumstances ]

Physical Parameter Table
Parameter Symbol Value Units Sigma Reference Notes
absolute magnitude H 16.98   n/a E2021B10  

72526 (2001 DV92)          Discovered 2001-Feb-19 by LONEOS at Anderson Mesa
Reference: 20031109/Numbers.arcLast Updated: 2004-04-19

Alternate Designations
 2001 DV92 = 1996 TE67 
Ephemeris | Orbit Diagram | Orbital Elements | Mission Design | Physical Parameters | Discovery Circumstances ]
ABOUT SSD CREDITS/AWARDS PRIVACY/COPYRIGHT GLOSSARY LINKS
FirstGov 2021-Jun-18 07:22 UT
(server date/time)  
NASA Home Page
Site Manager:   Ryan S. Park
Webmaster  Alan B. Chamberlin